Weather History for Santander Airport, Spain

Change the Weather History Date:

Monday, November 14, 2011

  Actual Average Record
Temperature  
Mean Temperature 58 °F -  
Max Temperature 62 °F 55 °F 69 °F (2012)
Min Temperature 55 °F 45 °F 41 °F (2012)
Degree Days  
Heating Degree Days 6    
Growing Degree Days 8 (Base 50)    
Moisture  
Dew Point 51 °F    
Average Humidity 73    
Maximum Humidity 88    
Minimum Humidity 59    
Precipitation  
Precipitation 0.00 in - - ()
Sea Level Pressure  
Sea Level Pressure 29.85 in    
Wind  
Wind Speed 3 mph ()    
Max Wind Speed 16 mph    
Max Gust Speed 30 mph    
Visibility 6.2 miles    
Events      
Averages and records for this station are not official NWS values.
T = Trace of Precipitation, MM = Missing Value Source: Averaged Metar Reports

Daily Weather History Graph

Daily Weather History Graph

Search for Another Location

Airport:

Trip Planner

Search our weather history database for the weather conditions in past years. The results will help you decide how hot, cold, wet, or windy it might be!

Date:

Astronomy

Nov. 14, 2011 Rise Set
Actual Time 8:06 AM CET 5:51 PM CET
Civil Twilight 7:36 AM CET 6:22 PM CET
Nautical Twilight 7:01 AM CET 6:57 PM CET
Astronomical Twilight 6:27 AM CET 7:30 PM CET
Moon 8:42 PM CET (11/14) 11:17 AM CET (11/14)
Length of Visible Light 10h 46m
Length of Day
9h 45m
Waning Gibbous, 88% of the Moon is Illuminated
Nov 14
Waning Gibbous
Nov 18
Last Quarter
Nov 25
New
Dec 2
First Quarter
Dec 10
Full

Hourly Weather History & Observations

Time (CET) Temp. Dew Point Humidity Pressure Visibility Wind Dir Wind Speed Gust Speed Precip Events Conditions
5:30 AM 60.8 °F 48.2 °F 63% 29.92 in - SE 3.5 mph - N/A   Clear
6:00 AM 62.6 °F 50.0 °F 63% 29.92 in - SSW 4.6 mph - N/A   Clear
6:30 AM 62.6 °F 48.2 °F 59% 29.92 in - South 3.5 mph - N/A   Clear
7:00 AM 57.2 °F 50.0 °F 77% 29.92 in - Variable 2.3 mph - N/A   Clear
7:30 AM 55.4 °F 50.0 °F 82% 29.92 in - Calm Calm - N/A   Clear
8:00 AM 55.4 °F 50.0 °F 82% 29.89 in 6.2 mi Variable 1.2 mph - N/A   Scattered Clouds
8:30 AM 55.4 °F 51.8 °F 88% 29.89 in 6.2 mi Variable 1.2 mph - N/A   Scattered Clouds
9:00 AM 55.4 °F 51.8 °F 88% 29.89 in 6.2 mi Variable 2.3 mph - N/A   Scattered Clouds
9:30 AM 55.4 °F 50.0 °F 82% 29.89 in 6.2 mi East 4.6 mph - N/A   Mostly Cloudy
10:00 AM 57.2 °F 51.8 °F 82% 29.89 in 6.2 mi Variable 1.2 mph - N/A   Mostly Cloudy
10:30 AM 57.2 °F 51.8 °F 82% 29.89 in 6.2 mi Variable 1.2 mph - N/A   Scattered Clouds
11:00 AM 59.0 °F 53.6 °F 82% 29.89 in 6.2 mi Variable 2.3 mph - N/A   Scattered Clouds
11:30 AM 60.8 °F 53.6 °F 77% 29.89 in 6.2 mi East 2.3 mph - N/A   Scattered Clouds
12:00 PM 60.8 °F 53.6 °F 77% 29.89 in 6.2 mi Variable 2.3 mph - N/A   Scattered Clouds
12:30 PM 60.8 °F 53.6 °F 77% 29.86 in 6.2 mi Variable 2.3 mph - N/A   Scattered Clouds
1:00 PM 60.8 °F 53.6 °F 77% 29.86 in 6.2 mi East 3.5 mph - N/A   Scattered Clouds
1:30 PM 62.6 °F 51.8 °F 68% 29.86 in 6.2 mi Variable 1.2 mph - N/A   Scattered Clouds
2:00 PM 60.8 °F 53.6 °F 77% 29.86 in 6.2 mi SSE 2.3 mph - N/A   Scattered Clouds
2:30 PM 60.8 °F 53.6 °F 77% 29.86 in 6.2 mi SSW 1.2 mph - N/A   Scattered Clouds
3:00 PM 60.8 °F 51.8 °F 72% 29.83 in 6.2 mi ESE 2.3 mph - N/A   Scattered Clouds
3:30 PM 60.8 °F 51.8 °F 72% 29.83 in 6.2 mi Calm Calm - N/A   Scattered Clouds
4:00 PM 60.8 °F 51.8 °F 72% 29.83 in 6.2 mi SE 3.5 mph - N/A   Scattered Clouds
4:30 PM 60.8 °F 51.8 °F 72% 29.83 in 6.2 mi ENE 1.2 mph - N/A   Scattered Clouds
5:00 PM 60.8 °F 51.8 °F 72% 29.83 in 6.2 mi Calm Calm - N/A   Scattered Clouds
5:30 PM 60.8 °F 51.8 °F 72% 29.83 in 6.2 mi NNE 2.3 mph - N/A   Scattered Clouds
6:00 PM 62.6 °F 50.0 °F 63% 29.83 in 6.2 mi NE 4.6 mph - N/A   Scattered Clouds
6:30 PM 62.6 °F 51.8 °F 68% 29.83 in 6.2 mi ENE 3.5 mph - N/A   Scattered Clouds
7:00 PM 60.8 °F 51.8 °F 72% 29.80 in 6.2 mi Variable 2.3 mph - N/A   Scattered Clouds
7:30 PM 62.6 °F 50.0 °F 63% 29.80 in 6.2 mi ESE 10.4 mph - N/A   Scattered Clouds
8:00 PM 62.6 °F 50.0 °F 63% 29.80 in 6.2 mi ESE 10.4 mph - N/A   Partly Cloudy
8:30 PM 60.8 °F 50.0 °F 68% 29.80 in 6.2 mi SE 8.1 mph - N/A   Partly Cloudy
9:00 PM 62.6 °F 51.8 °F 68% 29.80 in 6.2 mi SE 10.4 mph - N/A   Partly Cloudy
9:30 PM 62.6 °F 50.0 °F 63% 29.80 in 6.2 mi SSE 8.1 mph - N/A   Partly Cloudy
10:00 PM 62.6 °F 50.0 °F 63% 29.83 in 6.2 mi SSW 11.5 mph - N/A   Scattered Clouds
10:30 PM 60.8 °F 50.0 °F 68% 29.80 in 6.2 mi South 15.0 mph - N/A   Scattered Clouds
11:00 PM 60.8 °F 50.0 °F 68% 29.80 in 6.2 mi South 16.1 mph 29.9 mph N/A   Mostly Cloudy